This is the latest recevied weather packets stored in our database for station/object KC1TEM-13. If no packets are shown the sender has not sent any weather packets the latest 10 day(s).
| Time | Temp. | Humidity | Pressure | Rain* | Wind** | Luminosity | Snow |
|---|---|---|---|---|---|---|---|
| 1777401413 | 14.44° C | 31% | 1023 hPa | 0 mm | - | 757 W/m² | - |
| 1777401108 | 14.44° C | 35% | 1023.2 hPa | 0 mm | - | 769 W/m² | - |
| 1777400804 | 14.44° C | 35% | 1023.1 hPa | 0 mm | - | 774 W/m² | - |
| 1777400501 | 13.89° C | 41% | 1023.2 hPa | 0 mm | - | 784 W/m² | - |
| 1777400198 | 13.89° C | 39% | 1023.2 hPa | 0 mm | - | 792 W/m² | - |
| 1777399894 | 13.89° C | 42% | 1023.4 hPa | 0 mm | - | 803 W/m² | - |
| 1777399591 | 13.89° C | 45% | 1023.4 hPa | 0 mm | - | 811 W/m² | - |
| 1777399288 | 13.89° C | 44% | 1023.3 hPa | 0 mm | - | 818 W/m² | - |
| 1777398987 | 13.89° C | 46% | 1023.3 hPa | 0 mm | - | 828 W/m² | - |
| 1777398683 | 13.89° C | 45% | 1023.3 hPa | 0 mm | - | 833 W/m² | - |
| 1777398379 | 13.89° C | 47% | 1023.2 hPa | 0 mm | - | 844 W/m² | - |
| 1777398076 | 13.89° C | 49% | 1023.2 hPa | 0 mm | - | 833 W/m² | - |
| 1777397774 | 14.44° C | 47% | 1023.3 hPa | 0 mm | - | 854 W/m² | - |
| 1777397468 | 14.44° C | 47% | 1023.3 hPa | 0 mm | - | 847 W/m² | - |
| 1777397165 | 14.44° C | 49% | 1023.2 hPa | 0 mm | - | 862 W/m² | - |
| 1777396862 | 15° C | 49% | 1023.2 hPa | 0 mm | - | 863 W/m² | - |
| 1777396558 | 15° C | 48% | 1023.4 hPa | 0 mm | - | 869 W/m² | - |
| 1777396256 | 14.44° C | 48% | 1023.3 hPa | 0 mm | - | 870 W/m² | - |
| 1777395951 | 13.89° C | 48% | 1023.4 hPa | 0 mm | - | 875 W/m² | - |
| 1777395646 | 13.89° C | 49% | 1023.3 hPa | 0 mm | - | 880 W/m² | - |
| 1777395343 | 13.89° C | 48% | 1023.3 hPa | 0 mm | - | 882 W/m² | - |
| 1777395041 | 13.89° C | 49% | 1023.3 hPa | 0 mm | - | 885 W/m² | - |
| 1777394737 | 13.89° C | 49% | 1023.4 hPa | 0 mm | - | 886 W/m² | - |
| 1777394433 | 13.89° C | 50% | 1023.3 hPa | 0 mm | - | 886 W/m² | - |
| 1777394130 | 13.89° C | 49% | 1023.3 hPa | 0 mm | - | 888 W/m² | - |
* Rain latest hour (hover to see other rain measurements)
** Current wind speed in m/s (hover to see current wind gust speed)